Hlavní strana
METAR-TAF:

METAR-TAF

Letiště :

Delaware County Airport (Johnson Field)

Muncie, Indiana, Spojené státy americké

zeměpisná šířka: 40-14-03N, zeměpisná délka: 085-23-37W, výška: 285 m

Aktuální stav počasí

Zpráva byla vytvořena před 27 minutami, v 02:53 UTC
Severozápadní vítr 6 kt
Teplota -11°C
Vlhkost vzduchu 66%
Tlak 1027 hPa
Viditelnost: 16.1 km
Zataženo ve výšce 4600 ft

METAR: KMIE 210253Z 32006KT 10SM OVC046 M11/M16 A3034 RMK AO2 SLP289 T11111161 51012 $

Čas: 22:20 (03:20 UTC)


TAF: chybějící

Stav a předpovědi počasí z více než 4 000 letišť (zprávy METAR a TAF).

Červené a žluté tečky na mapě představují dostupné meteorologické stanice.

Když kurzor umístíte na tečku, zobrazí se název stanice.

Pak kliknutím zobrazíte stav a předpověď počasí.

Chcete-li změnit mapu, kliknutím na zelené tlačítko se znaménkem +mapu přiblížíte, kliknutím na zelené tlačítko se znaménkem – mapu oddálíte a kliknutím na zelené šipky přejdete na sousední mapy.


METAR-TAF: